Regional & State Weather Roundups


742 
ASUS42 KCHS 191127
RWRCHS
Regional Weather Roundup
National Weather Service Charleston SC
600 AM EST MON FEB 19 2018
NOTE: "fair" indicates few or no clouds below 12,000 feet with no
significant weather and/or obstructions to visibility.
Not all stations are quality controlled. Use data with caution,
especially dewpoint observations.
SCZ027-030-031-034>040-042>050-191200-
...Southeast South Carolina...
  
CITY           SKY/WX    TMP DP  RH WIND       PRES   REMARKS
N Charleston   RAIN      58  55  90 NE6       30.36R FOG              
Waterfront Prk   N/A     58  57  96 N5        30.20R                  
Mount Pleasant CLOUDY    57  55  94 CALM      30.36R FOG              
Johns Island     N/A     59  57  94 CALM      30.36R FOG              
Pinopolis        N/A     55  54  94 NE7       30.28R                  
Moncks Corner  CLOUDY    54  52  94 NE5       30.37S FOG              
Summerville    CLOUDY    54  54 100 N5        30.38R FOG              
Beaufort MCAS  CLOUDY    60  60 100 NE5       30.35R FOG              
Beaufort Arpt  CLOUDY    59  57  94 NE9       30.35R FOG              
Hilton Head Is CLOUDY    59  57  94 NE6       30.35R FOG              
Walterboro     FOG       54  54 100 NE5       30.37R VSB 1            
Allendale      CLOUDY    57  55  94 CALM      30.36R                  
...Southern Midlands and Pee Dee...
  
CITY           SKY/WX    TMP DP  RH WIND       PRES   REMARKS
Georgetown     CLOUDY    54  54 100 NE3       30.39R                  
Kingstree      CLOUDY    50  50 100 CALM      30.39S                  
Orangeburg     CLOUDY    56  52  86 NE3       30.37R                  
Barnwell         N/A     57  57 100 E5        30.37R FOG              
Aiken          CLOUDY    55  52  88 NE5       30.40R                  
Manning        CLOUDY    54  46  76 MISG      30.38S                  
Columbia       CLOUDY    58  51  78 NE7       30.38R                  
Sumter         CLOUDY    52  50  93 NE5       30.38R                  
Florence       CLOUDY    49  47  93 E8        30.41R FOG              
Myrtle Beach   CLOUDY    53  50  89 N6        30.40R                  
N Myrtle Beach CLOUDY    53  49  86 N5        30.38R                  
$$
 
GAZ063-065-086>088-099>101-113>116-118-119-134>141-150-191200-
...Southeast Georgia...
  
CITY           SKY/WX    TMP DP  RH WIND       PRES   REMARKS
Savannah Arpt  FOG       59  59 100 E3        30.34R VSB 1/4          
Hunter AAF     CLOUDY    59  56  92 NE3       30.31R                  
Fort Stewart   CLOUDY    59  59 100 CALM      30.32R FOG              
Statesboro     CLOUDY    60  56  84 CALM      30.35S                  
Sylvania       CLOUDY    59  59  97 E3        30.36R FOG              
Claxton        CLOUDY    61  59  95 CALM      30.35R FOG              
...CSRA, Central and far Southeast Georgia...
  
CITY           SKY/WX    TMP DP  RH WIND       PRES   REMARKS
Thomson        CLOUDY    56  55  95 SE3       30.41R                  
Augusta-Bush   CLOUDY    57  53  86 SE3       30.35R                  
Augusta-Daniel CLOUDY    58  53  84 SE3       30.36R                  
Swainsboro     CLOUDY    61  59  94 E3        30.35R                  
Vidalia        CLOUDY    61  59  94 E5        30.34R                  
Eastman        CLOUDY    64  55  73 SE6       30.35R                  
Hazlehurst     CLOUDY    64  62  93 CALM      30.32R                  
Alma           CLOUDY    64  61  90 CALM      30.31R                  
Waycross       CLOUDY    64  61  90 SE6       30.32R                  
Jesup          CLOUDY    63  59  88 CALM      30.33R FOG              
Baxley         CLOUDY    61  61 100 CALM      30.33R                  
Brunswick      FOG       61  59  94 NE5       30.34R VSB 1/4          
Saint Simons   FOG       62  62 100 N6        30.32R VSB 1            
$$
SCZ027-028-034-036>038-045-046-048>050-GAZ119-141-191200-
...Lake and Supplemental Coastal Observations...
  
STATION/POSITION TIME  TEMP    WIND        PRES    WAVE   SWELL
                       AIR SEA DIR/SP/G            HT/PER HT/PER/DIR
                 (UTC) (F)     (DEG/KT/KT) (MB)    (FT/S) (FT/S/D)
Winyah Bay       1045   54      40/  7     1028.0S
Lake Murray      1050   56      60/  2/  4 1028.1R
ACE Basin NERRS  1045   58      20/  3     1027.0S
Fort Pulaski     1100   59 59   50/  6/  7 1027.6
Sapelo Island    1100   59      30/  4     1027.0
$$
ANZ835-935-AMZ111-154-330-350-352-354-370-450-454-472-191200-
...C-MAN and Buoy Observations...
  
STATION/POSITION TIME  TEMP    WIND        PRES    WAVE   SWELL
                       AIR SEA DIR/SP/G            HT/PER HT/PER/DIR
                 (UTC) (F)     (DEG/KT/KT) (MB)    (FT/S) (FT/S/D)
Buoy 41004       1110   70 67  130/ 10/ 12 1027.0
Buoy 41008       1050   59 58   40/  6/  6 1026.1R   3/ 9   3/100/ 9
Folly Beach CMAN 1100   57      20/  8/  9 1028.3R
Capers Nearshore 1008   52 56   40/ 17/ 23 1026.7R
Fripp Nearshore  1108   55 57   40/ 10/ 16 1025.7F
  
STATION/POSITION TIME  TEMP    WIND        PRES    WAVE   SWELL
                       AIR SEA DIR/SP/G            HT/PER HT/PER/DIR
                 (UTC) (F)     (DEG/KT/KT) (MB)    (FT/S) (FT/S/D)
5E St. Marys GA  1100      58                N/A     2/ 5
Frying Pan Buoy  1110   68 66  140/  8/ 10 1028.3
Buoy 41025       1110   65 72  120/ 16/ 19 1031.4
Cape Lookout NC  1100          100/ 15/ 16 1030.1F
Buoy 41002       1050   69 72   80/ 17/ 19 1028.9R   6/ 8   3/ 30/ 8
Buoy 41010       NOT AVBL
St Augustine FL  1100   58 59  350/  5/  6 1026.1R
$$